NORTHEAST SUFFOLK  -  Winter Weather Advisory Winter Weather Advisory     Winter Weather Advisory Winter Weather Advisory        NORTHERN NASSAU  -  Winter Weather Advisory Winter Weather Advisory        NORTHWEST SUFFOLK  -  Winter Weather Advisory Winter Weather Advisory     Winter Weather Advisory Winter Weather Advisory        SOUTHEAST SUFFOLK  -  Winter Weather Advisory Winter Weather Advisory     Winter Weather Advisory Winter Weather Advisory        SOUTHERN NASSAU  -  Winter Weather Advisory Winter Weather Advisory        SOUTHWEST SUFFOLK  -  Winter Weather Advisory Winter Weather Advisory     Winter Weather Advisory Winter Weather Advisory      

Active alerts

Northern Nassau
  Details for Northern Nassau Winter Weather Advisory
Southern Nassau
  Details for Southern Nassau Winter Weather Advisory
Northwest Suffolk
  Details for Northwest Suffolk Winter Weather Advisory  +1 additional alert
Southwest Suffolk
  Details for Southwest Suffolk Winter Weather Advisory  +1 additional alert
Northeast Suffolk
  Details for Northeast Suffolk Winter Weather Advisory  +1 additional alert
Southeast Suffolk
  Details for Southeast Suffolk Winter Weather Advisory  +1 additional alert


WXM80 ListenWXM80 Stop

You find our weather info also at:

UK Metoffice

WeatherCloud

Weather Underground

Northeastern Weather Network

AWEKAS

Citizen Weather Observer Program (CWOP)

HAMweather, WeatherForYou, PWS Weather


Weather Underground History page Text

Daily Summary for November 10, 2017 Units:  Both    English   Metric
« Previous Day
Next Day »
Daily Weekly Monthly Yearly Custom
  High: Low: Average:
Temperature: 52.2 °F /  11.2 °C 27.2 °F /  -2.7 °C 38.8 °F /  3.8 °C
Dew Point: 50.1 °F /  10.1 °C 11.8 °F /  -11.2 °C 26.2 °F /  -3.2 °C
Humidity: 93 % 44 % 61 %
Wind Speed: 14.5 mph /  23.3 km/h - 6.7 mph /  10.8 km/h
Wind Gust: 29.0 mph /  46.7 km/h - -
Wind:- - WSW
Pressure: 30.47 in /  1031.7 hPa 29.89 in /  1012.1 hPa -
Precipitation: 0.00 in /  0 mm    
Historical Graphs
 
 
Tabular Data for November 10, 2017
Time Temperature Dew Point Pressure Wind Wind Speed Wind Gust Humidity Rainfall Rate (Hourly)
00:02 51.4 °F /  10.8 °C 49.4 °F /  9.7 °C 29.92 in /  1013.1 hPa Calm   3.5 mph /  5.6 km/h 93 % 0.00 in /  0 mm
00:07 51.5 °F /  10.8 °C 49.5 °F /  9.7 °C 29.91 in /  1012.8 hPa SW 2.4 mph /  3.9 km/h 3.5 mph /  5.6 km/h 93 % 0.00 in /  0 mm
00:12 51.7 °F /  10.9 °C 49.7 °F /  9.8 °C 29.91 in /  1012.8 hPa SW 0.6 mph /  1 km/h 2.3 mph /  3.7 km/h 93 % 0.00 in /  0 mm
00:17 51.8 °F /  11 °C 49.8 °F /  9.9 °C 29.91 in /  1012.8 hPa SSW 5.1 mph /  8.2 km/h 9.2 mph /  14.8 km/h 93 % 0.00 in /  0 mm
00:22 51.9 °F /  11.1 °C 49.9 °F /  9.9 °C 29.91 in /  1012.8 hPa WSW 5.9 mph /  9.5 km/h 11.5 mph /  18.5 km/h 93 % 0.00 in /  0 mm
00:27 52.1 °F /  11.2 °C 50.1 °F /  10.1 °C 29.91 in /  1012.8 hPa WSW 6.1 mph /  9.8 km/h 11.5 mph /  18.5 km/h 93 % 0.00 in /  0 mm
00:32 52.2 °F /  11.2 °C 49.9 °F /  9.9 °C 29.91 in /  1012.8 hPa WSW 3.9 mph /  6.3 km/h 10.4 mph /  16.7 km/h 92 % 0.00 in /  0 mm
00:37 52.2 °F /  11.2 °C 49.9 °F /  9.9 °C 29.91 in /  1012.8 hPa SSW 3.1 mph /  5 km/h 5.0 mph /  8 km/h 92 % 0.00 in /  0 mm
00:42 52.2 °F /  11.2 °C 49.9 °F /  9.9 °C 29.91 in /  1012.8 hPa SSW 2.0 mph /  3.2 km/h 5.0 mph /  8 km/h 92 % 0.00 in /  0 mm
00:47 52.2 °F /  11.2 °C 49.9 °F /  9.9 °C 29.91 in /  1012.8 hPa SSW 4.0 mph /  6.4 km/h 11.5 mph /  18.5 km/h 92 % 0.00 in /  0 mm
00:52 52.2 °F /  11.2 °C 49.9 °F /  9.9 °C 29.90 in /  1012.4 hPa WSW 2.0 mph /  3.2 km/h 9.2 mph /  14.8 km/h 92 % 0.00 in /  0 mm
00:57 52.1 °F /  11.2 °C 49.8 °F /  9.9 °C 29.90 in /  1012.4 hPa SSW 5.1 mph /  8.2 km/h 11.5 mph /  18.5 km/h 92 % 0.00 in /  0 mm
01:02 52.1 °F /  11.2 °C 49.8 °F /  9.9 °C 29.90 in /  1012.4 hPa SSW 4.3 mph /  6.9 km/h 9.2 mph /  14.8 km/h 92 % 0.00 in /  0 mm
01:07 52.1 °F /  11.2 °C 49.8 °F /  9.9 °C 29.91 in /  1012.8 hPa SSW 2.1 mph /  3.4 km/h 4.6 mph /  7.4 km/h 92 % 0.00 in /  0 mm
01:12 52.0 °F /  11.1 °C 49.7 °F /  9.8 °C 29.90 in /  1012.4 hPa SSW 7.1 mph /  11.4 km/h 11.5 mph /  18.5 km/h 92 % 0.00 in /  0 mm
01:17 52.0 °F /  11.1 °C 49.7 °F /  9.8 °C 29.90 in /  1012.4 hPa WSW 3.5 mph /  5.6 km/h 6.9 mph /  11.1 km/h 92 % 0.00 in /  0 mm
01:22 52.0 °F /  11.1 °C 49.7 °F /  9.8 °C 29.91 in /  1012.8 hPa West 5.2 mph /  8.4 km/h 5.8 mph /  9.3 km/h 92 % 0.00 in /  0 mm
01:27 52.0 °F /  11.1 °C 49.7 °F /  9.8 °C 29.91 in /  1012.8 hPa West 6.4 mph /  10.3 km/h 10.0 mph /  16.1 km/h 92 % 0.00 in /  0 mm
01:32 51.9 °F /  11.1 °C 49.6 °F /  9.8 °C 29.90 in /  1012.4 hPa SSW 8.5 mph /  13.7 km/h 17.3 mph /  27.8 km/h 92 % 0.00 in /  0 mm
01:37 51.8 °F /  11 °C 49.5 °F /  9.7 °C 29.90 in /  1012.4 hPa SSW 6.9 mph /  11.1 km/h 8.1 mph /  13 km/h 92 % 0.00 in /  0 mm
01:42 51.7 °F /  10.9 °C 49.5 °F /  9.7 °C 29.90 in /  1012.4 hPa WNW 3.3 mph /  5.3 km/h 4.6 mph /  7.4 km/h 92 % 0.00 in /  0 mm
01:47 51.7 °F /  10.9 °C 49.5 °F /  9.7 °C 29.90 in /  1012.4 hPa WNW 7.9 mph /  12.7 km/h 16.0 mph /  25.7 km/h 92 % 0.00 in /  0 mm
01:53 51.5 °F /  10.8 °C 49.0 °F /  9.4 °C 29.90 in /  1012.4 hPa WSW 4.3 mph /  6.9 km/h 6.9 mph /  11.1 km/h 91 % 0.00 in /  0 mm
01:58 51.5 °F /  10.8 °C 49.0 °F /  9.4 °C 29.90 in /  1012.4 hPa SW 4.6 mph /  7.4 km/h 8.0 mph /  12.9 km/h 91 % 0.00 in /  0 mm
02:03 51.3 °F /  10.7 °C 48.8 °F /  9.3 °C 29.90 in /  1012.4 hPa SW 3.6 mph /  5.8 km/h 10.4 mph /  16.7 km/h 91 % 0.00 in /  0 mm
02:08 51.1 °F /  10.6 °C 48.6 °F /  9.2 °C 29.90 in /  1012.4 hPa SW 5.1 mph /  8.2 km/h 8.1 mph /  13 km/h 91 % 0.00 in /  0 mm
02:13 51.0 °F /  10.6 °C 48.2 °F /  9 °C 29.90 in /  1012.4 hPa SW 3.2 mph /  5.1 km/h 8.1 mph /  13 km/h 90 % 0.00 in /  0 mm
02:18 50.8 °F /  10.4 °C 48.0 °F /  8.9 °C 29.90 in /  1012.4 hPa WSW 2.9 mph /  4.7 km/h 7.0 mph /  11.3 km/h 90 % 0.00 in /  0 mm
02:20 50.6 °F /  10.3 °C 47.5 °F /  8.6 °C 29.90 in /  1012.4 hPa SSW 3.8 mph /  6.1 km/h 6.9 mph /  11.1 km/h 89 % 0.00 in /  0 mm
02:25 50.5 °F /  10.3 °C 47.4 °F /  8.6 °C 29.90 in /  1012.4 hPa WSW 3.1 mph /  5 km/h 9.2 mph /  14.8 km/h 89 % 0.00 in /  0 mm
02:30 50.3 °F /  10.2 °C 47.2 °F /  8.4 °C 29.90 in /  1012.4 hPa WSW 2.2 mph /  3.5 km/h 3.0 mph /  4.8 km/h 89 % 0.00 in /  0 mm
02:35 50.1 °F /  10.1 °C 46.7 °F /  8.2 °C 29.90 in /  1012.4 hPa SW 3.5 mph /  5.6 km/h 6.9 mph /  11.1 km/h 88 % 0.00 in /  0 mm
02:40 49.9 °F /  9.9 °C 46.8 °F /  8.2 °C 29.90 in /  1012.4 hPa SSW 2.9 mph /  4.7 km/h 10.4 mph /  16.7 km/h 89 % 0.00 in /  0 mm
02:45 49.7 °F /  9.8 °C 46.6 °F /  8.1 °C 29.90 in /  1012.4 hPa SW 8.3 mph /  13.4 km/h 11.5 mph /  18.5 km/h 89 % 0.00 in /  0 mm
02:50 49.6 °F /  9.8 °C 46.2 °F /  7.9 °C 29.90 in /  1012.4 hPa SW 3.9 mph /  6.3 km/h 7.0 mph /  11.3 km/h 88 % 0.00 in /  0 mm
02:55 49.5 °F /  9.7 °C 46.1 °F /  7.8 °C 29.90 in /  1012.4 hPa SW 4.5 mph /  7.2 km/h 11.5 mph /  18.5 km/h 88 % 0.00 in /  0 mm
03:00 49.4 °F /  9.7 °C 46.0 °F /  7.8 °C 29.90 in /  1012.4 hPa West 4.7 mph /  7.6 km/h 10.4 mph /  16.7 km/h 88 % 0.00 in /  0 mm
03:05 49.2 °F /  9.6 °C 45.8 °F /  7.7 °C 29.90 in /  1012.4 hPa SW 5.5 mph /  8.9 km/h 10.0 mph /  16.1 km/h 88 % 0.00 in /  0 mm
03:10 49.2 °F /  9.6 °C 45.5 °F /  7.5 °C 29.89 in /  1012.1 hPa SSW 5.9 mph /  9.5 km/h 6.9 mph /  11.1 km/h 87 % 0.00 in /  0 mm
03:15 49.1 °F /  9.5 °C 45.4 °F /  7.4 °C 29.90 in /  1012.4 hPa SSW 6.0 mph /  9.7 km/h 8.1 mph /  13 km/h 87 % 0.00 in /  0 mm
03:20 49.0 °F /  9.4 °C 45.3 °F /  7.4 °C 29.90 in /  1012.4 hPa SW 5.0 mph /  8 km/h 8.1 mph /  13 km/h 87 % 0.00 in /  0 mm
03:25 48.9 °F /  9.4 °C 44.9 °F /  7.2 °C 29.89 in /  1012.1 hPa SSW 4.5 mph /  7.2 km/h 10.4 mph /  16.7 km/h 86 % 0.00 in /  0 mm
03:30 48.8 °F /  9.3 °C 44.8 °F /  7.1 °C 29.90 in /  1012.4 hPa WSW 3.8 mph /  6.1 km/h 8.1 mph /  13 km/h 86 % 0.00 in /  0 mm
03:35 48.8 °F /  9.3 °C 44.8 °F /  7.1 °C 29.90 in /  1012.4 hPa SW 1.0 mph /  1.6 km/h 5.0 mph /  8 km/h 86 % 0.00 in /  0 mm
03:40 48.7 °F /  9.3 °C 44.7 °F /  7.1 °C 29.90 in /  1012.4 hPa WSW 1.4 mph /  2.3 km/h 9.2 mph /  14.8 km/h 86 % 0.00 in /  0 mm
03:45 48.7 °F /  9.3 °C 44.7 °F /  7.1 °C 29.90 in /  1012.4 hPa NW 2.1 mph /  3.4 km/h 3.5 mph /  5.6 km/h 86 % 0.00 in /  0 mm
03:50 48.6 °F /  9.2 °C 44.6 °F /  7 °C 29.90 in /  1012.4 hPa West 5.7 mph /  9.2 km/h 9.2 mph /  14.8 km/h 86 % 0.00 in /  0 mm
03:55 48.6 °F /  9.2 °C 44.6 °F /  7 °C 29.91 in /  1012.8 hPa WNW 0.8 mph /  1.3 km/h 11.5 mph /  18.5 km/h 86 % 0.00 in /  0 mm
04:00 48.6 °F /  9.2 °C 44.6 °F /  7 °C 29.91 in /  1012.8 hPa NW 3.7 mph /  6 km/h 11.5 mph /  18.5 km/h 86 % 0.00 in /  0 mm
04:05 48.6 °F /  9.2 °C 44.6 °F /  7 °C 29.92 in /  1013.1 hPa WSW 5.2 mph /  8.4 km/h 9.2 mph /  14.8 km/h 86 % 0.00 in /  0 mm
04:10 48.5 °F /  9.2 °C 44.5 °F /  6.9 °C 29.92 in /  1013.1 hPa NW 6.4 mph /  10.3 km/h 15.0 mph /  24.1 km/h 86 % 0.00 in /  0 mm
04:15 48.6 °F /  9.2 °C 44.3 °F /  6.8 °C 29.92 in /  1013.1 hPa West 6.8 mph /  10.9 km/h 13.8 mph /  22.2 km/h 85 % 0.00 in /  0 mm
04:20 48.7 °F /  9.3 °C 44.1 °F /  6.7 °C 29.92 in /  1013.1 hPa SW 6.1 mph /  9.8 km/h 11.5 mph /  18.5 km/h 84 % 0.00 in /  0 mm
04:25 48.7 °F /  9.3 °C 44.1 °F /  6.7 °C 29.92 in /  1013.1 hPa West 8.9 mph /  14.3 km/h 13.8 mph /  22.2 km/h 84 % 0.00 in /  0 mm
04:30 48.8 °F /  9.3 °C 44.2 °F /  6.8 °C 29.92 in /  1013.1 hPa WNW 6.7 mph /  10.8 km/h 11.5 mph /  18.5 km/h 84 % 0.00 in /  0 mm
04:35 48.8 °F /  9.3 °C 44.2 °F /  6.8 °C 29.93 in /  1013.4 hPa NNE 3.9 mph /  6.3 km/h 11.5 mph /  18.5 km/h 84 % 0.00 in /  0 mm
04:40 48.8 °F /  9.3 °C 44.2 °F /  6.8 °C 29.93 in /  1013.4 hPa WNW 12.0 mph /  19.3 km/h 25.3 mph /  40.7 km/h 84 % 0.00 in /  0 mm
04:45 48.7 °F /  9.3 °C 42.8 °F /  6 °C 29.94 in /  1013.8 hPa WNW 9.1 mph /  14.6 km/h 17.0 mph /  27.4 km/h 80 % 0.00 in /  0 mm
04:50 48.5 °F /  9.2 °C 41.6 °F /  5.3 °C 29.95 in /  1014.1 hPa WSW 6.7 mph /  10.8 km/h 17.3 mph /  27.8 km/h 77 % 0.00 in /  0 mm
04:55 48.4 °F /  9.1 °C 41.5 °F /  5.3 °C 29.95 in /  1014.1 hPa NW 6.6 mph /  10.6 km/h 11.5 mph /  18.5 km/h 77 % 0.00 in /  0 mm
05:00 48.2 °F /  9 °C 39.9 °F /  4.4 °C 29.95 in /  1014.1 hPa WSW 9.0 mph /  14.5 km/h 20.7 mph /  33.3 km/h 73 % 0.00 in /  0 mm
05:05 48.0 °F /  8.9 °C 39.8 °F /  4.3 °C 29.96 in /  1014.4 hPa West 6.8 mph /  10.9 km/h 15.0 mph /  24.1 km/h 73 % 0.00 in /  0 mm
05:10 47.8 °F /  8.8 °C 39.2 °F /  4 °C 29.96 in /  1014.4 hPa West 5.0 mph /  8 km/h 11.5 mph /  18.5 km/h 72 % 0.00 in /  0 mm
05:15 47.4 °F /  8.6 °C 38.8 °F /  3.8 °C 29.96 in /  1014.4 hPa WNW 9.5 mph /  15.3 km/h 19.6 mph /  31.5 km/h 72 % 0.00 in /  0 mm
05:20 47.2 °F /  8.4 °C 38.6 °F /  3.7 °C 29.96 in /  1014.4 hPa NNE 10.0 mph /  16.1 km/h 13.8 mph /  22.2 km/h 72 % 0.00 in /  0 mm
05:25 46.9 °F /  8.3 °C 38.3 °F /  3.5 °C 29.97 in /  1014.8 hPa NNW 5.6 mph /  9 km/h 13.8 mph /  22.2 km/h 72 % 0.00 in /  0 mm
05:30 46.6 °F /  8.1 °C 38.1 °F /  3.4 °C 29.97 in /  1014.8 hPa North 8.3 mph /  13.4 km/h 13.8 mph /  22.2 km/h 72 % 0.00 in /  0 mm
05:35 46.4 °F /  8 °C 37.9 °F /  3.3 °C 29.98 in /  1015.1 hPa NNW 8.0 mph /  12.9 km/h 12.7 mph /  20.4 km/h 72 % 0.00 in /  0 mm
05:40 46.1 °F /  7.8 °C 37.2 °F /  2.9 °C 29.97 in /  1014.8 hPa WNW 8.7 mph /  14 km/h 16.1 mph /  25.9 km/h 71 % 0.00 in /  0 mm
05:45 45.9 °F /  7.7 °C 37.0 °F /  2.8 °C 29.98 in /  1015.1 hPa WNW 5.9 mph /  9.5 km/h 15.0 mph /  24.1 km/h 71 % 0.00 in /  0 mm
05:50 45.7 °F /  7.6 °C 36.1 °F /  2.3 °C 29.98 in /  1015.1 hPa North 7.8 mph /  12.6 km/h 13.8 mph /  22.2 km/h 69 % 0.00 in /  0 mm
05:55 45.6 °F /  7.6 °C 36.7 °F /  2.6 °C 29.98 in /  1015.1 hPa NNW 7.1 mph /  11.4 km/h 11.5 mph /  18.5 km/h 71 % 0.00 in /  0 mm
06:00 45.4 °F /  7.4 °C 36.9 °F /  2.7 °C 29.99 in /  1015.5 hPa NW 8.2 mph /  13.2 km/h 11.5 mph /  18.5 km/h 72 % 0.00 in /  0 mm
06:05 45.2 °F /  7.3 °C 36.4 °F /  2.4 °C 30.00 in /  1015.8 hPa WNW 4.4 mph /  7.1 km/h 11.5 mph /  18.5 km/h 71 % 0.00 in /  0 mm
06:10 45.1 °F /  7.3 °C 37.0 °F /  2.8 °C 30.00 in /  1015.8 hPa WNW 9.7 mph /  15.6 km/h 16.1 mph /  25.9 km/h 73 % 0.00 in /  0 mm
06:15 45.0 °F /  7.2 °C 36.5 °F /  2.5 °C 30.00 in /  1015.8 hPa NW 7.9 mph /  12.7 km/h 18.4 mph /  29.6 km/h 72 % 0.00 in /  0 mm
06:20 44.8 °F /  7.1 °C 35.6 °F /  2 °C 30.00 in /  1015.8 hPa WSW 10.9 mph /  17.5 km/h 19.6 mph /  31.5 km/h 70 % 0.00 in /  0 mm
06:25 44.6 °F /  7 °C 35.4 °F /  1.9 °C 30.00 in /  1015.8 hPa NW 7.7 mph /  12.4 km/h 17.3 mph /  27.8 km/h 70 % 0.00 in /  0 mm
06:30 44.5 °F /  6.9 °C 35.7 °F /  2.1 °C 30.00 in /  1015.8 hPa NNE 5.9 mph /  9.5 km/h 16.1 mph /  25.9 km/h 71 % 0.00 in /  0 mm
06:35 44.3 °F /  6.8 °C 35.1 °F /  1.7 °C 30.01 in /  1016.1 hPa NNW 7.2 mph /  11.6 km/h 10.4 mph /  16.7 km/h 70 % 0.00 in /  0 mm
06:40 44.1 °F /  6.7 °C 34.9 °F /  1.6 °C 30.01 in /  1016.1 hPa WSW 8.4 mph /  13.5 km/h 12.0 mph /  19.3 km/h 70 % 0.00 in /  0 mm
06:45 44.0 °F /  6.7 °C 34.8 °F /  1.6 °C 30.02 in /  1016.5 hPa WNW 10.1 mph /  16.3 km/h 15.0 mph /  24.1 km/h 70 % 0.00 in /  0 mm
06:50 43.7 °F /  6.5 °C 34.2 °F /  1.2 °C 30.03 in /  1016.8 hPa North 7.0 mph /  11.3 km/h 13.0 mph /  20.9 km/h 69 % 0.00 in /  0 mm
06:55 43.5 °F /  6.4 °C 34.0 °F /  1.1 °C 30.03 in /  1016.8 hPa WNW 7.6 mph /  12.2 km/h 15.0 mph /  24.1 km/h 69 % 0.00 in /  0 mm
07:00 43.3 °F /  6.3 °C 33.1 °F /  0.6 °C 30.04 in /  1017.2 hPa NW 11.9 mph /  19.2 km/h 19.6 mph /  31.5 km/h 67 % 0.00 in /  0 mm
07:05 43.0 °F /  6.1 °C 32.4 °F /  0.2 °C 30.05 in /  1017.5 hPa West 8.2 mph /  13.2 km/h 15.0 mph /  24.1 km/h 66 % 0.00 in /  0 mm
07:10 42.6 °F /  5.9 °C 31.7 °F /  -0.2 °C 30.05 in /  1017.5 hPa North 8.5 mph /  13.7 km/h 16.1 mph /  25.9 km/h 65 % 0.00 in /  0 mm
07:15 42.3 °F /  5.7 °C 31.7 °F /  -0.2 °C 30.06 in /  1017.8 hPa NNE 8.5 mph /  13.7 km/h 17.3 mph /  27.8 km/h 66 % 0.00 in /  0 mm
07:20 41.9 °F /  5.5 °C 31.0 °F /  -0.6 °C 30.06 in /  1017.8 hPa NW 8.1 mph /  13 km/h 15.0 mph /  24.1 km/h 65 % 0.00 in /  0 mm
07:25 41.5 °F /  5.3 °C 30.6 °F /  -0.8 °C 30.06 in /  1017.8 hPa NNW 7.4 mph /  11.9 km/h 10.4 mph /  16.7 km/h 65 % 0.00 in /  0 mm
07:30 41.3 °F /  5.2 °C 28.9 °F /  -1.7 °C 30.07 in /  1018.2 hPa WNW 14.5 mph /  23.3 km/h 24.2 mph /  38.9 km/h 61 % 0.00 in /  0 mm
07:35 41.0 °F /  5 °C 27.8 °F /  -2.3 °C 30.07 in /  1018.2 hPa SSW 10.6 mph /  17.1 km/h 17.3 mph /  27.8 km/h 59 % 0.00 in /  0 mm
07:40 40.7 °F /  4.8 °C 27.9 °F /  -2.3 °C 30.08 in /  1018.5 hPa NNE 9.0 mph /  14.5 km/h 20.7 mph /  33.3 km/h 60 % 0.00 in /  0 mm
07:45 40.5 °F /  4.7 °C 28.9 °F /  -1.7 °C 30.07 in /  1018.2 hPa WSW 7.5 mph /  12.1 km/h 16.1 mph /  25.9 km/h 63 % 0.00 in /  0 mm
07:50 40.4 °F /  4.7 °C 27.2 °F /  -2.7 °C 30.09 in /  1018.8 hPa WNW 12.0 mph /  19.3 km/h 20.7 mph /  33.3 km/h 59 % 0.00 in /  0 mm
07:56 40.1 °F /  4.5 °C 25.6 °F /  -3.6 °C 30.09 in /  1018.8 hPa NNW 5.9 mph /  9.5 km/h 18.4 mph /  29.6 km/h 56 % 0.00 in /  0 mm
08:01 39.9 °F /  4.4 °C 24.1 °F /  -4.4 °C 30.10 in /  1019.2 hPa West 11.1 mph /  17.9 km/h 24.2 mph /  38.9 km/h 53 % 0.00 in /  0 mm
08:06 39.6 °F /  4.2 °C 23.9 °F /  -4.5 °C 30.10 in /  1019.2 hPa WNW 10.0 mph /  16.1 km/h 24.0 mph /  38.6 km/h 53 % 0.00 in /  0 mm
08:11 39.4 °F /  4.1 °C 24.6 °F /  -4.1 °C 30.11 in /  1019.5 hPa NW 5.3 mph /  8.5 km/h 12.7 mph /  20.4 km/h 55 % 0.00 in /  0 mm
08:16 39.3 °F /  4.1 °C 24.0 °F /  -4.4 °C 30.10 in /  1019.2 hPa North 7.8 mph /  12.6 km/h 18.4 mph /  29.6 km/h 54 % 0.00 in /  0 mm
08:21 39.2 °F /  4 °C 24.8 °F /  -4 °C 30.11 in /  1019.5 hPa West 8.0 mph /  12.9 km/h 13.0 mph /  20.9 km/h 56 % 0.00 in /  0 mm
08:26 39.2 °F /  4 °C 24.8 °F /  -4 °C 30.12 in /  1019.9 hPa WNW 6.0 mph /  9.7 km/h 18.0 mph /  29 km/h 56 % 0.00 in /  0 mm
08:31 39.2 °F /  4 °C 24.8 °F /  -4 °C 30.12 in /  1019.9 hPa NW 6.0 mph /  9.7 km/h 16.0 mph /  25.7 km/h 56 % 0.00 in /  0 mm
08:36 39.4 °F /  4.1 °C 25.4 °F /  -3.7 °C 30.12 in /  1019.9 hPa WNW 7.0 mph /  11.3 km/h 20.0 mph /  32.2 km/h 57 % 0.00 in /  0 mm
08:41 39.8 °F /  4.3 °C 25.4 °F /  -3.7 °C 30.12 in /  1019.9 hPa NW 7.0 mph /  11.3 km/h 20.0 mph /  32.2 km/h 56 % 0.00 in /  0 mm
08:46 40.1 °F /  4.5 °C 25.2 °F /  -3.8 °C 30.12 in /  1019.9 hPa NW 9.0 mph /  14.5 km/h 20.0 mph /  32.2 km/h 55 % 0.00 in /  0 mm
08:51 40.2 °F /  4.6 °C 24.4 °F /  -4.2 °C 30.13 in /  1020.2 hPa NW 8.0 mph /  12.9 km/h 16.0 mph /  25.7 km/h 53 % 0.00 in /  0 mm
08:56 40.4 °F /  4.7 °C 25.0 °F /  -3.9 °C 30.13 in /  1020.2 hPa NW 7.0 mph /  11.3 km/h 16.0 mph /  25.7 km/h 54 % 0.00 in /  0 mm
09:01 40.6 °F /  4.8 °C 24.8 °F /  -4 °C 30.13 in /  1020.2 hPa NW 8.3 mph /  13.4 km/h 13.8 mph /  22.2 km/h 53 % 0.00 in /  0 mm
09:06 40.7 °F /  4.8 °C 23.0 °F /  -5 °C 30.13 in /  1020.2 hPa NW 9.9 mph /  15.9 km/h 21.9 mph /  35.2 km/h 49 % 0.00 in /  0 mm
09:11 40.8 °F /  4.9 °C 24.5 °F /  -4.2 °C 30.13 in /  1020.2 hPa NW 9.2 mph /  14.8 km/h 19.6 mph /  31.5 km/h 52 % 0.00 in /  0 mm
09:16 40.9 °F /  4.9 °C 23.2 °F /  -4.9 °C 30.13 in /  1020.2 hPa NW 9.5 mph /  15.3 km/h 14.0 mph /  22.5 km/h 49 % 0.00 in /  0 mm
09:21 41.1 °F /  5.1 °C 24.3 °F /  -4.3 °C 30.14 in /  1020.5 hPa NW 6.5 mph /  10.5 km/h 13.8 mph /  22.2 km/h 51 % 0.00 in /  0 mm
09:26 41.3 °F /  5.2 °C 23.1 °F /  -4.9 °C 30.13 in /  1020.2 hPa NW 6.6 mph /  10.6 km/h 17.3 mph /  27.8 km/h 48 % 0.00 in /  0 mm
09:31 41.5 °F /  5.3 °C 23.7 °F /  -4.6 °C 30.13 in /  1020.2 hPa NNW 8.6 mph /  13.8 km/h 17.3 mph /  27.8 km/h 49 % 0.00 in /  0 mm
09:36 41.9 °F /  5.5 °C 25.1 °F /  -3.8 °C 30.14 in /  1020.5 hPa NNW 8.6 mph /  13.8 km/h 13.8 mph /  22.2 km/h 51 % 0.00 in /  0 mm
09:39 42.2 °F /  5.7 °C 25.3 °F /  -3.7 °C 30.14 in /  1020.5 hPa NNE 5.4 mph /  8.7 km/h 12.0 mph /  19.3 km/h 51 % 0.00 in /  0 mm
09:44 42.6 °F /  5.9 °C 27.1 °F /  -2.7 °C 30.14 in /  1020.5 hPa WNW 6.5 mph /  10.5 km/h 11.5 mph /  18.5 km/h 54 % 0.00 in /  0 mm
09:49 42.6 °F /  5.9 °C 24.8 °F /  -4 °C 30.14 in /  1020.5 hPa West 5.5 mph /  8.9 km/h 13.8 mph /  22.2 km/h 49 % 0.00 in /  0 mm
09:54 42.7 °F /  5.9 °C 24.4 °F /  -4.2 °C 30.14 in /  1020.5 hPa NNW 9.5 mph /  15.3 km/h 15.0 mph /  24.1 km/h 48 % 0.00 in /  0 mm
09:59 42.9 °F /  6.1 °C 26.0 °F /  -3.3 °C 30.15 in /  1020.9 hPa NW 9.7 mph /  15.6 km/h 15.0 mph /  24.1 km/h 51 % 0.00 in /  0 mm
10:04 42.6 °F /  5.9 °C 25.7 °F /  -3.5 °C 30.14 in /  1020.5 hPa NW 8.7 mph /  14 km/h 15.0 mph /  24.1 km/h 51 % 0.00 in /  0 mm
10:10 42.4 °F /  5.8 °C 26.0 °F /  -3.3 °C 30.15 in /  1020.9 hPa NNW 7.2 mph /  11.6 km/h 19.6 mph /  31.5 km/h 52 % 0.00 in /  0 mm
10:15 42.4 °F /  5.8 °C 25.5 °F /  -3.6 °C 30.15 in /  1020.9 hPa NW 6.1 mph /  9.8 km/h 17.3 mph /  27.8 km/h 51 % 0.00 in /  0 mm
10:20 42.7 °F /  5.9 °C 25.3 °F /  -3.7 °C 30.16 in /  1021.2 hPa WNW 8.0 mph /  12.9 km/h 13.8 mph /  22.2 km/h 50 % 0.00 in /  0 mm
10:25 42.5 °F /  5.8 °C 24.7 °F /  -4.1 °C 30.16 in /  1021.2 hPa NE 12.8 mph /  20.6 km/h 23.0 mph /  37 km/h 49 % 0.00 in /  0 mm
10:30 42.0 °F /  5.6 °C 24.7 °F /  -4.1 °C 30.16 in /  1021.2 hPa NNW 10.7 mph /  17.2 km/h 19.6 mph /  31.5 km/h 50 % 0.00 in /  0 mm
10:35 41.6 °F /  5.3 °C 22.8 °F /  -5.1 °C 30.16 in /  1021.2 hPa NW 5.7 mph /  9.2 km/h 10.4 mph /  16.7 km/h 47 % 0.00 in /  0 mm
10:40 41.4 °F /  5.2 °C 23.2 °F /  -4.9 °C 30.16 in /  1021.2 hPa North 6.7 mph /  10.8 km/h 14.0 mph /  22.5 km/h 48 % 0.00 in /  0 mm
10:45 41.2 °F /  5.1 °C 22.5 °F /  -5.3 °C 30.16 in /  1021.2 hPa NW 10.3 mph /  16.6 km/h 20.0 mph /  32.2 km/h 47 % 0.00 in /  0 mm
10:50 41.0 °F /  5 °C 23.8 °F /  -4.6 °C 30.17 in /  1021.6 hPa West 5.7 mph /  9.2 km/h 16.1 mph /  25.9 km/h 50 % 0.00 in /  0 mm
10:55 41.0 °F /  5 °C 24.2 °F /  -4.3 °C 30.17 in /  1021.6 hPa WNW 4.0 mph /  6.4 km/h 10.4 mph /  16.7 km/h 51 % 0.00 in /  0 mm
11:00 40.8 °F /  4.9 °C 23.1 °F /  -4.9 °C 30.17 in /  1021.6 hPa WNW 8.0 mph /  12.9 km/h 18.4 mph /  29.6 km/h 49 % 0.00 in /  0 mm
11:05 40.6 °F /  4.8 °C 22.9 °F /  -5.1 °C 30.17 in /  1021.6 hPa WNW 9.8 mph /  15.8 km/h 25.3 mph /  40.7 km/h 49 % 0.00 in /  0 mm
11:10 40.4 °F /  4.7 °C 23.7 °F /  -4.6 °C 30.17 in /  1021.6 hPa West 6.9 mph /  11.1 km/h 11.5 mph /  18.5 km/h 51 % 0.00 in /  0 mm
11:15 40.2 °F /  4.6 °C 23.0 °F /  -5 °C 30.17 in /  1021.6 hPa NW 7.1 mph /  11.4 km/h 12.7 mph /  20.4 km/h 50 % 0.00 in /  0 mm
11:20 39.9 °F /  4.4 °C 23.2 °F /  -4.9 °C 30.17 in /  1021.6 hPa North 5.4 mph /  8.7 km/h 16.0 mph /  25.7 km/h 51 % 0.00 in /  0 mm
11:26 39.7 °F /  4.3 °C 23.0 °F /  -5 °C 30.17 in /  1021.6 hPa NW 6.0 mph /  9.7 km/h 16.0 mph /  25.7 km/h 51 % 0.00 in /  0 mm
11:31 39.4 °F /  4.1 °C 23.2 °F /  -4.9 °C 30.17 in /  1021.6 hPa NW 12.0 mph /  19.3 km/h 29.0 mph /  46.7 km/h 52 % 0.00 in /  0 mm
11:36 39.2 °F /  4 °C 23.0 °F /  -5 °C 30.17 in /  1021.6 hPa NW 7.0 mph /  11.3 km/h 15.0 mph /  24.1 km/h 52 % 0.00 in /  0 mm
11:41 39.1 °F /  3.9 °C 22.9 °F /  -5.1 °C 30.17 in /  1021.6 hPa North 6.0 mph /  9.7 km/h 10.4 mph /  16.7 km/h 52 % 0.00 in /  0 mm
11:46 38.9 °F /  3.8 °C 24.1 °F /  -4.4 °C 30.17 in /  1021.6 hPa NNW 3.0 mph /  4.8 km/h 15.0 mph /  24.1 km/h 55 % 0.00 in /  0 mm
11:51 38.7 °F /  3.7 °C 24.8 °F /  -4 °C 30.18 in /  1021.9 hPa North 5.2 mph /  8.4 km/h 8.0 mph /  12.9 km/h 57 % 0.00 in /  0 mm
11:56 38.5 °F /  3.6 °C 24.6 °F /  -4.1 °C 30.18 in /  1021.9 hPa NNE 7.9 mph /  12.7 km/h 15.0 mph /  24.1 km/h 57 % 0.00 in /  0 mm
12:01 38.2 °F /  3.4 °C 23.9 °F /  -4.5 °C 30.18 in /  1021.9 hPa WNW 10.4 mph /  16.7 km/h 19.6 mph /  31.5 km/h 56 % 0.00 in /  0 mm
12:06 38.1 °F /  3.4 °C 24.2 °F /  -4.3 °C 30.18 in /  1021.9 hPa NNW 7.0 mph /  11.3 km/h 18.4 mph /  29.6 km/h 57 % 0.00 in /  0 mm
12:11 38.1 °F /  3.4 °C 22.9 °F /  -5.1 °C 30.18 in /  1021.9 hPa WNW 7.5 mph /  12.1 km/h 20.0 mph /  32.2 km/h 54 % 0.00 in /  0 mm
12:16 37.9 °F /  3.3 °C 21.8 °F /  -5.7 °C 30.19 in /  1022.2 hPa NNW 8.0 mph /  12.9 km/h 20.0 mph /  32.2 km/h 52 % 0.00 in /  0 mm
12:21 37.8 °F /  3.2 °C 23.1 °F /  -4.9 °C 30.19 in /  1022.2 hPa NNW 9.7 mph /  15.6 km/h 16.1 mph /  25.9 km/h 55 % 0.00 in /  0 mm
12:26 37.9 °F /  3.3 °C 23.2 °F /  -4.9 °C 30.19 in /  1022.2 hPa North 8.5 mph /  13.7 km/h 13.0 mph /  20.9 km/h 55 % 0.00 in /  0 mm
12:31 37.8 °F /  3.2 °C 22.7 °F /  -5.2 °C 30.19 in /  1022.2 hPa NW 8.0 mph /  12.9 km/h 20.0 mph /  32.2 km/h 54 % 0.00 in /  0 mm
12:36 37.8 °F /  3.2 °C 21.7 °F /  -5.7 °C 30.20 in /  1022.6 hPa NW 8.0 mph /  12.9 km/h 20.0 mph /  32.2 km/h 52 % 0.00 in /  0 mm
12:41 37.6 °F /  3.1 °C 22.0 °F /  -5.6 °C 30.20 in /  1022.6 hPa WNW 6.0 mph /  9.7 km/h 14.0 mph /  22.5 km/h 53 % 0.00 in /  0 mm
12:46 37.6 °F /  3.1 °C 21.1 °F /  -6.1 °C 30.20 in /  1022.6 hPa WNW 7.0 mph /  11.3 km/h 15.0 mph /  24.1 km/h 51 % 0.00 in /  0 mm
12:51 37.4 °F /  3 °C 20.9 °F /  -6.2 °C 30.21 in /  1022.9 hPa WNW 7.0 mph /  11.3 km/h 18.0 mph /  29 km/h 51 % 0.00 in /  0 mm
12:56 37.2 °F /  2.9 °C 20.2 °F /  -6.6 °C 30.21 in /  1022.9 hPa WNW 13.0 mph /  20.9 km/h 23.0 mph /  37 km/h 50 % 0.00 in /  0 mm
13:01 37.0 °F /  2.8 °C 20.5 °F /  -6.4 °C 30.21 in /  1022.9 hPa NNE 7.7 mph /  12.4 km/h 11.5 mph /  18.5 km/h 51 % 0.00 in /  0 mm
13:06 37.0 °F /  2.8 °C 19.6 °F /  -6.9 °C 30.20 in /  1022.6 hPa WNW 9.7 mph /  15.6 km/h 17.3 mph /  27.8 km/h 49 % 0.00 in /  0 mm
13:11 36.9 °F /  2.7 °C 19.0 °F /  -7.2 °C 30.20 in /  1022.6 hPa NW 6.0 mph /  9.7 km/h 14.0 mph /  22.5 km/h 48 % 0.00 in /  0 mm
13:16 37.1 °F /  2.8 °C 20.6 °F /  -6.3 °C 30.21 in /  1022.9 hPa NW 8.0 mph /  12.9 km/h 20.0 mph /  32.2 km/h 51 % 0.00 in /  0 mm
13:21 37.3 °F /  2.9 °C 21.3 °F /  -5.9 °C 30.21 in /  1022.9 hPa NW 7.0 mph /  11.3 km/h 15.0 mph /  24.1 km/h 52 % 0.00 in /  0 mm
13:26 37.6 °F /  3.1 °C 20.6 °F /  -6.3 °C 30.20 in /  1022.6 hPa NW 10.0 mph /  16.1 km/h 18.0 mph /  29 km/h 50 % 0.00 in /  0 mm
13:31 37.7 °F /  3.2 °C 19.8 °F /  -6.8 °C 30.21 in /  1022.9 hPa NW 8.0 mph /  12.9 km/h 16.0 mph /  25.7 km/h 48 % 0.00 in /  0 mm
13:36 37.7 °F /  3.2 °C 20.7 °F /  -6.3 °C 30.21 in /  1022.9 hPa NNW 8.0 mph /  12.9 km/h 15.0 mph /  24.1 km/h 50 % 0.00 in /  0 mm
13:41 37.9 °F /  3.3 °C 21.3 °F /  -5.9 °C 30.21 in /  1022.9 hPa NW 7.0 mph /  11.3 km/h 14.0 mph /  22.5 km/h 51 % 0.00 in /  0 mm
13:46 37.9 °F /  3.3 °C 20.0 °F /  -6.7 °C 30.21 in /  1022.9 hPa NW 8.0 mph /  12.9 km/h 16.0 mph /  25.7 km/h 48 % 0.00 in /  0 mm
13:51 38.0 °F /  3.3 °C 19.0 °F /  -7.2 °C 30.21 in /  1022.9 hPa WNW 6.0 mph /  9.7 km/h 13.8 mph /  22.2 km/h 46 % 0.00 in /  0 mm
13:56 38.1 °F /  3.4 °C 18.1 °F /  -7.7 °C 30.21 in /  1022.9 hPa WNW 5.4 mph /  8.7 km/h 12.7 mph /  20.4 km/h 44 % 0.00 in /  0 mm
14:01 38.0 °F /  3.3 °C 19.5 °F /  -6.9 °C 30.21 in /  1022.9 hPa North 4.4 mph /  7.1 km/h 12.7 mph /  20.4 km/h 47 % 0.00 in /  0 mm
14:06 38.0 °F /  3.3 °C 19.5 °F /  -6.9 °C 30.21 in /  1022.9 hPa North 6.0 mph /  9.7 km/h 15.0 mph /  24.1 km/h 47 % 0.00 in /  0 mm
14:11 37.8 °F /  3.2 °C 18.8 °F /  -7.3 °C 30.21 in /  1022.9 hPa NNW 3.0 mph /  4.8 km/h 9.0 mph /  14.5 km/h 46 % 0.00 in /  0 mm
14:16 37.7 °F /  3.2 °C 20.2 °F /  -6.6 °C 30.21 in /  1022.9 hPa NNW 7.0 mph /  11.3 km/h 18.0 mph /  29 km/h 49 % 0.00 in /  0 mm
14:21 37.5 °F /  3.1 °C 19.6 °F /  -6.9 °C 30.21 in /  1022.9 hPa NNW 6.0 mph /  9.7 km/h 21.0 mph /  33.8 km/h 48 % 0.00 in /  0 mm
14:26 37.3 °F /  2.9 °C 19.4 °F /  -7 °C 30.22 in /  1023.2 hPa NNW 7.0 mph /  11.3 km/h 17.0 mph /  27.4 km/h 48 % 0.00 in /  0 mm
14:31 37.1 °F /  2.8 °C 19.2 °F /  -7.1 °C 30.22 in /  1023.2 hPa NNW 6.0 mph /  9.7 km/h 15.0 mph /  24.1 km/h 48 % 0.00 in /  0 mm
14:36 36.9 °F /  2.7 °C 17.0 °F /  -8.3 °C 30.22 in /  1023.2 hPa NNW 7.0 mph /  11.3 km/h 20.0 mph /  32.2 km/h 44 % 0.00 in /  0 mm
14:41 36.7 °F /  2.6 °C 17.3 °F /  -8.2 °C 30.23 in /  1023.6 hPa NW 6.0 mph /  9.7 km/h 12.0 mph /  19.3 km/h 45 % 0.00 in /  0 mm
14:46 36.5 °F /  2.5 °C 17.1 °F /  -8.3 °C 30.23 in /  1023.6 hPa NNW 7.0 mph /  11.3 km/h 14.0 mph /  22.5 km/h 45 % 0.00 in /  0 mm
14:51 36.3 °F /  2.4 °C 17.5 °F /  -8.1 °C 30.23 in /  1023.6 hPa NNW 7.0 mph /  11.3 km/h 16.0 mph /  25.7 km/h 46 % 0.00 in /  0 mm
14:56 36.1 °F /  2.3 °C 16.8 °F /  -8.4 °C 30.24 in /  1023.9 hPa NW 5.0 mph /  8 km/h 20.0 mph /  32.2 km/h 45 % 0.00 in /  0 mm
15:01 36.0 °F /  2.2 °C 19.6 °F /  -6.9 °C 30.24 in /  1023.9 hPa NE 9.0 mph /  14.5 km/h 12.0 mph /  19.3 km/h 51 % 0.00 in /  0 mm
15:06 35.8 °F /  2.1 °C 18.0 °F /  -7.8 °C 30.24 in /  1023.9 hPa North 3.9 mph /  6.3 km/h 9.2 mph /  14.8 km/h 48 % 0.00 in /  0 mm
15:11 35.7 °F /  2.1 °C 17.9 °F /  -7.8 °C 30.24 in /  1023.9 hPa NNE 6.4 mph /  10.3 km/h 13.8 mph /  22.2 km/h 48 % 0.00 in /  0 mm
15:16 35.5 °F /  1.9 °C 17.7 °F /  -7.9 °C 30.25 in /  1024.3 hPa NNW 4.4 mph /  7.1 km/h 11.5 mph /  18.5 km/h 48 % 0.00 in /  0 mm
15:21 35.5 °F /  1.9 °C 18.2 °F /  -7.7 °C 30.25 in /  1024.3 hPa NNW 8.7 mph /  14 km/h 16.1 mph /  25.9 km/h 49 % 0.00 in /  0 mm
15:26 35.4 °F /  1.9 °C 18.1 °F /  -7.7 °C 30.26 in /  1024.6 hPa NE 8.7 mph /  14 km/h 20.7 mph /  33.3 km/h 49 % 0.00 in /  0 mm
15:31 35.3 °F /  1.8 °C 17.5 °F /  -8.1 °C 30.26 in /  1024.6 hPa NNE 10.4 mph /  16.7 km/h 16.1 mph /  25.9 km/h 48 % 0.00 in /  0 mm
15:36 35.1 °F /  1.7 °C 16.9 °F /  -8.4 °C 30.27 in /  1024.9 hPa WNW 11.0 mph /  17.7 km/h 24.2 mph /  38.9 km/h 47 % 0.00 in /  0 mm
15:41 35.0 °F /  1.7 °C 17.3 °F /  -8.2 °C 30.27 in /  1024.9 hPa NNE 10.5 mph /  16.9 km/h 18.4 mph /  29.6 km/h 48 % 0.00 in /  0 mm
15:46 34.8 °F /  1.6 °C 15.6 °F /  -9.1 °C 30.27 in /  1024.9 hPa North 6.8 mph /  10.9 km/h 19.6 mph /  31.5 km/h 45 % 0.00 in /  0 mm
15:51 34.6 °F /  1.4 °C 15.9 °F /  -8.9 °C 30.27 in /  1024.9 hPa North 8.3 mph /  13.4 km/h 19.0 mph /  30.6 km/h 46 % 0.00 in /  0 mm
15:56 34.4 °F /  1.3 °C 15.7 °F /  -9.1 °C 30.28 in /  1025.3 hPa NNW 8.0 mph /  12.9 km/h 10.0 mph /  16.1 km/h 46 % 0.00 in /  0 mm
16:01 34.2 °F /  1.2 °C 14.5 °F /  -9.7 °C 30.28 in /  1025.3 hPa NNE 7.2 mph /  11.6 km/h 15.0 mph /  24.1 km/h 44 % 0.00 in /  0 mm
16:07 34.1 °F /  1.2 °C 14.9 °F /  -9.5 °C 30.30 in /  1026 hPa NW 6.8 mph /  10.9 km/h 11.5 mph /  18.5 km/h 45 % 0.00 in /  0 mm
16:12 34.0 °F /  1.1 °C 14.3 °F /  -9.8 °C 30.30 in /  1026 hPa NNW 7.3 mph /  11.7 km/h 15.0 mph /  24.1 km/h 44 % 0.00 in /  0 mm
16:17 33.8 °F /  1 °C 15.7 °F /  -9.1 °C 30.30 in /  1026 hPa NNW 7.3 mph /  11.7 km/h 15.0 mph /  24.1 km/h 47 % 0.00 in /  0 mm
16:22 33.8 °F /  1 °C 15.7 °F /  -9.1 °C 30.30 in /  1026 hPa North 8.2 mph /  13.2 km/h 11.5 mph /  18.5 km/h 47 % 0.00 in /  0 mm
16:27 33.7 °F /  0.9 °C 16.5 °F /  -8.6 °C 30.30 in /  1026 hPa NE 7.0 mph /  11.3 km/h 14.0 mph /  22.5 km/h 49 % 0.00 in /  0 mm
16:32 33.6 °F /  0.9 °C 14.5 °F /  -9.7 °C 30.30 in /  1026 hPa NNE 8.4 mph /  13.5 km/h 15.0 mph /  24.1 km/h 45 % 0.00 in /  0 mm
16:37 33.5 °F /  0.8 °C 14.4 °F /  -9.8 °C 30.30 in /  1026 hPa North 13.3 mph /  21.4 km/h 19.6 mph /  31.5 km/h 45 % 0.00 in /  0 mm
16:42 33.4 °F /  0.8 °C 15.8 °F /  -9 °C 30.31 in /  1026.3 hPa North 10.2 mph /  16.4 km/h 13.8 mph /  22.2 km/h 48 % 0.00 in /  0 mm
16:47 33.3 °F /  0.7 °C 15.7 °F /  -9.1 °C 30.31 in /  1026.3 hPa North 6.6 mph /  10.6 km/h 12.0 mph /  19.3 km/h 48 % 0.00 in /  0 mm
16:52 33.2 °F /  0.7 °C 15.6 °F /  -9.1 °C 30.31 in /  1026.3 hPa North 4.9 mph /  7.9 km/h 9.2 mph /  14.8 km/h 48 % 0.00 in /  0 mm
16:57 33.0 °F /  0.6 °C 14.4 °F /  -9.8 °C 30.32 in /  1026.6 hPa WNW 9.9 mph /  15.9 km/h 16.1 mph /  25.9 km/h 46 % 0.00 in /  0 mm
17:02 32.8 °F /  0.4 °C 15.7 °F /  -9.1 °C 30.33 in /  1027 hPa NNW 5.6 mph /  9 km/h 11.5 mph /  18.5 km/h 49 % 0.00 in /  0 mm
17:07 32.7 °F /  0.4 °C 15.6 °F /  -9.1 °C 30.33 in /  1027 hPa NNW 8.5 mph /  13.7 km/h 17.3 mph /  27.8 km/h 49 % 0.00 in /  0 mm
17:12 32.6 °F /  0.3 °C 16.0 °F /  -8.9 °C 30.34 in /  1027.3 hPa West 5.0 mph /  8 km/h 12.7 mph /  20.4 km/h 50 % 0.00 in /  0 mm
17:17 32.5 °F /  0.3 °C 15.9 °F /  -8.9 °C 30.34 in /  1027.3 hPa NNE 10.4 mph /  16.7 km/h 20.7 mph /  33.3 km/h 50 % 0.00 in /  0 mm
17:22 32.4 °F /  0.2 °C 16.7 °F /  -8.5 °C 30.34 in /  1027.3 hPa North 7.5 mph /  12.1 km/h 15.0 mph /  24.1 km/h 52 % 0.00 in /  0 mm
17:27 32.3 °F /  0.2 °C 15.7 °F /  -9.1 °C 30.35 in /  1027.7 hPa NNE 6.9 mph /  11.1 km/h 12.7 mph /  20.4 km/h 50 % 0.00 in /  0 mm
17:32 32.2 °F /  0.1 °C 15.2 °F /  -9.3 °C 30.36 in /  1028 hPa NNW 7.4 mph /  11.9 km/h 18.4 mph /  29.6 km/h 49 % 0.00 in /  0 mm
17:38 32.0 °F /  0 °C 15.0 °F /  -9.4 °C 30.36 in /  1028 hPa NW 7.4 mph /  11.9 km/h 13.8 mph /  22.2 km/h 49 % 0.00 in /  0 mm
17:43 31.8 °F /  -0.1 °C 14.8 °F /  -9.6 °C 30.36 in /  1028 hPa NNW 5.6 mph /  9 km/h 10.4 mph /  16.7 km/h 49 % 0.00 in /  0 mm
17:48 31.7 °F /  -0.2 °C 14.2 °F /  -9.9 °C 30.36 in /  1028 hPa NW 9.6 mph /  15.4 km/h 17.3 mph /  27.8 km/h 48 % 0.00 in /  0 mm
17:53 31.5 °F /  -0.3 °C 14.5 °F /  -9.7 °C 30.37 in /  1028.3 hPa NW 4.3 mph /  6.9 km/h 8.1 mph /  13 km/h 49 % 0.00 in /  0 mm
17:58 31.4 °F /  -0.3 °C 14.4 °F /  -9.8 °C 30.37 in /  1028.3 hPa NW 4.2 mph /  6.8 km/h 18.4 mph /  29.6 km/h 49 % 0.00 in /  0 mm
18:03 31.2 °F /  -0.4 °C 14.7 °F /  -9.6 °C 30.38 in /  1028.7 hPa NNW 8.4 mph /  13.5 km/h 12.7 mph /  20.4 km/h 50 % 0.00 in /  0 mm
18:08 31.1 °F /  -0.5 °C 14.6 °F /  -9.7 °C 30.38 in /  1028.7 hPa West 10.6 mph /  17.1 km/h 19.6 mph /  31.5 km/h 50 % 0.00 in /  0 mm
18:13 31.0 °F /  -0.6 °C 15.0 °F /  -9.4 °C 30.39 in /  1029 hPa West 7.0 mph /  11.3 km/h 13.8 mph /  22.2 km/h 51 % 0.00 in /  0 mm
18:18 30.9 °F /  -0.6 °C 14.4 °F /  -9.8 °C 30.39 in /  1029 hPa NW 10.2 mph /  16.4 km/h 17.3 mph /  27.8 km/h 50 % 0.00 in /  0 mm
18:23 30.8 °F /  -0.7 °C 14.8 °F /  -9.6 °C 30.39 in /  1029 hPa NE 7.5 mph /  12.1 km/h 13.8 mph /  22.2 km/h 51 % 0.00 in /  0 mm
18:28 30.7 °F /  -0.7 °C 15.1 °F /  -9.4 °C 30.40 in /  1029.3 hPa NW 7.0 mph /  11.3 km/h 17.3 mph /  27.8 km/h 52 % 0.00 in /  0 mm
18:33 30.5 °F /  -0.8 °C 14.9 °F /  -9.5 °C 30.40 in /  1029.3 hPa NW 5.7 mph /  9.2 km/h 16.1 mph /  25.9 km/h 52 % 0.00 in /  0 mm
18:38 30.4 °F /  -0.9 °C 14.4 °F /  -9.8 °C 30.41 in /  1029.7 hPa WNW 6.0 mph /  9.7 km/h 15.0 mph /  24.1 km/h 51 % 0.00 in /  0 mm
18:43 30.3 °F /  -0.9 °C 14.3 °F /  -9.8 °C 30.40 in /  1029.3 hPa NNW 7.3 mph /  11.7 km/h 12.7 mph /  20.4 km/h 51 % 0.00 in /  0 mm
18:48 30.1 °F /  -1.1 °C 13.7 °F /  -10.2 °C 30.40 in /  1029.3 hPa NNW 6.1 mph /  9.8 km/h 15.0 mph /  24.1 km/h 50 % 0.00 in /  0 mm
18:53 30.0 °F /  -1.1 °C 12.7 °F /  -10.7 °C 30.41 in /  1029.7 hPa NNW 6.5 mph /  10.5 km/h 12.0 mph /  19.3 km/h 48 % 0.00 in /  0 mm
18:58 29.9 °F /  -1.2 °C 13.0 °F /  -10.6 °C 30.41 in /  1029.7 hPa ENE 6.6 mph /  10.6 km/h 19.0 mph /  30.6 km/h 49 % 0.00 in /  0 mm
19:03 29.7 °F /  -1.3 °C 13.3 °F /  -10.4 °C 30.42 in /  1030 hPa NNW 6.9 mph /  11.1 km/h 11.5 mph /  18.5 km/h 50 % 0.00 in /  0 mm
19:08 29.7 °F /  -1.3 °C 12.8 °F /  -10.7 °C 30.42 in /  1030 hPa WNW 5.3 mph /  8.5 km/h 10.4 mph /  16.7 km/h 49 % 0.00 in /  0 mm
19:13 29.6 °F /  -1.3 °C 12.8 °F /  -10.7 °C 30.42 in /  1030 hPa NNW 7.2 mph /  11.6 km/h 18.4 mph /  29.6 km/h 49 % 0.00 in /  0 mm
19:18 29.6 °F /  -1.3 °C 13.2 °F /  -10.4 °C 30.41 in /  1029.7 hPa NNW 8.6 mph /  13.8 km/h 18.4 mph /  29.6 km/h 50 % 0.00 in /  0 mm
19:23 29.6 °F /  -1.3 °C 13.2 °F /  -10.4 °C 30.42 in /  1030 hPa North 11.9 mph /  19.2 km/h 16.0 mph /  25.7 km/h 50 % 0.00 in /  0 mm
19:28 29.5 °F /  -1.4 °C 14.0 °F /  -10 °C 30.42 in /  1030 hPa WNW 3.3 mph /  5.3 km/h 8.1 mph /  13 km/h 52 % 0.00 in /  0 mm
19:33 29.5 °F /  -1.4 °C 15.3 °F /  -9.3 °C 30.43 in /  1030.4 hPa NNE 6.1 mph /  9.8 km/h 10.4 mph /  16.7 km/h 55 % 0.00 in /  0 mm
19:38 29.5 °F /  -1.4 °C 14.0 °F /  -10 °C 30.43 in /  1030.4 hPa North 6.7 mph /  10.8 km/h 8.1 mph /  13 km/h 52 % 0.00 in /  0 mm
19:43 29.3 °F /  -1.5 °C 12.9 °F /  -10.6 °C 30.43 in /  1030.4 hPa NNW 6.2 mph /  10 km/h 10.4 mph /  16.7 km/h 50 % 0.00 in /  0 mm
19:49 29.2 °F /  -1.6 °C 12.4 °F /  -10.9 °C 30.45 in /  1031 hPa North 5.6 mph /  9 km/h 12.7 mph /  20.4 km/h 49 % 0.00 in /  0 mm
19:54 29.1 °F /  -1.6 °C 12.3 °F /  -10.9 °C 30.44 in /  1030.7 hPa WNW 7.9 mph /  12.7 km/h 13.8 mph /  22.2 km/h 49 % 0.00 in /  0 mm
19:59 29.0 °F /  -1.7 °C 12.7 °F /  -10.7 °C 30.44 in /  1030.7 hPa WNW 6.6 mph /  10.6 km/h 11.5 mph /  18.5 km/h 50 % 0.00 in /  0 mm
20:04 28.9 °F /  -1.7 °C 12.6 °F /  -10.8 °C 30.44 in /  1030.7 hPa WNW 8.2 mph /  13.2 km/h 15.0 mph /  24.1 km/h 50 % 0.00 in /  0 mm
20:09 28.8 °F /  -1.8 °C 12.5 °F /  -10.8 °C 30.44 in /  1030.7 hPa WNW 3.6 mph /  5.8 km/h 14.0 mph /  22.5 km/h 50 % 0.00 in /  0 mm
20:14 28.7 °F /  -1.8 °C 11.9 °F /  -11.2 °C 30.44 in /  1030.7 hPa North 9.1 mph /  14.6 km/h 15.0 mph /  24.1 km/h 49 % 0.00 in /  0 mm
20:19 28.6 °F /  -1.9 °C 11.8 °F /  -11.2 °C 30.44 in /  1030.7 hPa NNE 4.7 mph /  7.6 km/h 9.2 mph /  14.8 km/h 49 % 0.00 in /  0 mm
20:24 28.6 °F /  -1.9 °C 13.2 °F /  -10.4 °C 30.44 in /  1030.7 hPa WNW 6.4 mph /  10.3 km/h 10.4 mph /  16.7 km/h 52 % 0.00 in /  0 mm
20:30 28.5 °F /  -1.9 °C 13.5 °F /  -10.3 °C 30.45 in /  1031 hPa NNW 5.2 mph /  8.4 km/h 6.9 mph /  11.1 km/h 53 % 0.00 in /  0 mm
20:35 28.5 °F /  -1.9 °C 13.1 °F /  -10.5 °C 30.45 in /  1031 hPa NNW 5.3 mph /  8.5 km/h 8.1 mph /  13 km/h 52 % 0.00 in /  0 mm
20:40 28.4 °F /  -2 °C 13.9 °F /  -10.1 °C 30.45 in /  1031 hPa NW 5.9 mph /  9.5 km/h 11.0 mph /  17.7 km/h 54 % 0.00 in /  0 mm
20:45 28.3 °F /  -2.1 °C 12.9 °F /  -10.6 °C 30.45 in /  1031 hPa North 4.6 mph /  7.4 km/h 9.2 mph /  14.8 km/h 52 % 0.00 in /  0 mm
20:50 28.3 °F /  -2.1 °C 13.3 °F /  -10.4 °C 30.46 in /  1031.4 hPa NNE 6.1 mph /  9.8 km/h 11.5 mph /  18.5 km/h 53 % 0.00 in /  0 mm
20:55 28.2 °F /  -2.1 °C 14.1 °F /  -9.9 °C 30.46 in /  1031.4 hPa NNE 7.2 mph /  11.6 km/h 15.0 mph /  24.1 km/h 55 % 0.00 in /  0 mm
21:00 28.2 °F /  -2.1 °C 13.7 °F /  -10.2 °C 30.46 in /  1031.4 hPa NNW 6.9 mph /  11.1 km/h 11.5 mph /  18.5 km/h 54 % 0.00 in /  0 mm
21:05 28.1 °F /  -2.2 °C 13.6 °F /  -10.2 °C 30.45 in /  1031 hPa NNW 4.0 mph /  6.4 km/h 10.4 mph /  16.7 km/h 54 % 0.00 in /  0 mm
21:10 28.1 °F /  -2.2 °C 14.0 °F /  -10 °C 30.46 in /  1031.4 hPa North 8.4 mph /  13.5 km/h 16.1 mph /  25.9 km/h 55 % 0.00 in /  0 mm
21:15 28.0 °F /  -2.2 °C 13.1 °F /  -10.5 °C 30.46 in /  1031.4 hPa NE 5.8 mph /  9.3 km/h 8.1 mph /  13 km/h 53 % 0.00 in /  0 mm
21:20 28.0 °F /  -2.2 °C 13.1 °F /  -10.5 °C 30.46 in /  1031.4 hPa NNE 7.7 mph /  12.4 km/h 17.3 mph /  27.8 km/h 53 % 0.00 in /  0 mm
21:25 28.0 °F /  -2.2 °C 15.1 °F /  -9.4 °C 30.46 in /  1031.4 hPa WNW 5.9 mph /  9.5 km/h 10.4 mph /  16.7 km/h 58 % 0.00 in /  0 mm
21:30 27.9 °F /  -2.3 °C 13.8 °F /  -10.1 °C 30.46 in /  1031.4 hPa NNE 4.5 mph /  7.2 km/h 9.2 mph /  14.8 km/h 55 % 0.00 in /  0 mm
21:35 27.9 °F /  -2.3 °C 13.8 °F /  -10.1 °C 30.46 in /  1031.4 hPa ENE 4.0 mph /  6.4 km/h 11.5 mph /  18.5 km/h 55 % 0.00 in /  0 mm
21:40 27.8 °F /  -2.3 °C 13.3 °F /  -10.4 °C 30.46 in /  1031.4 hPa North 7.7 mph /  12.4 km/h 13.8 mph /  22.2 km/h 54 % 0.00 in /  0 mm
21:45 27.8 °F /  -2.3 °C 14.1 °F /  -9.9 °C 30.46 in /  1031.4 hPa NNW 7.4 mph /  11.9 km/h 15.0 mph /  24.1 km/h 56 % 0.00 in /  0 mm
21:50 27.8 °F /  -2.3 °C 14.1 °F /  -9.9 °C 30.46 in /  1031.4 hPa WNW 6.0 mph /  9.7 km/h 12.0 mph /  19.3 km/h 56 % 0.00 in /  0 mm
21:56 27.7 °F /  -2.4 °C 13.6 °F /  -10.2 °C 30.47 in /  1031.7 hPa NNW 6.0 mph /  9.7 km/h 15.0 mph /  24.1 km/h 55 % 0.00 in /  0 mm
22:01 27.7 °F /  -2.4 °C 13.2 °F /  -10.4 °C 30.46 in /  1031.4 hPa NNW 6.2 mph /  10 km/h 15.0 mph /  24.1 km/h 54 % 0.00 in /  0 mm
22:06 27.7 °F /  -2.4 °C 13.6 °F /  -10.2 °C 30.47 in /  1031.7 hPa NNW 3.0 mph /  4.8 km/h 12.7 mph /  20.4 km/h 55 % 0.00 in /  0 mm
22:17 27.6 °F /  -2.4 °C 14.3 °F /  -9.8 °C 30.47 in /  1031.7 hPa NNE 3.2 mph /  5.1 km/h 6.9 mph /  11.1 km/h 57 % 0.00 in /  0 mm
22:22 27.5 °F /  -2.5 °C 15.0 °F /  -9.4 °C 30.47 in /  1031.7 hPa NNW 2.1 mph /  3.4 km/h 8.1 mph /  13 km/h 59 % 0.00 in /  0 mm
22:23 27.6 °F /  -2.4 °C 15.1 °F /  -9.4 °C 30.24 in /  1023.9 hPa NNW 1.8 mph /  2.9 km/h 8.1 mph /  13 km/h 59 % 0.00 in /  0 mm
22:24 27.5 °F /  -2.5 °C 14.6 °F /  -9.7 °C 30.25 in /  1024.3 hPa NW 7.0 mph /  11.3 km/h 17.3 mph /  27.8 km/h 58 % 0.00 in /  0 mm
22:28 27.5 °F /  -2.5 °C 14.2 °F /  -9.9 °C 30.47 in /  1031.7 hPa NW 6.7 mph /  10.8 km/h 11.5 mph /  18.5 km/h 57 % 0.00 in /  0 mm
22:33 27.5 °F /  -2.5 °C 15.0 °F /  -9.4 °C 30.47 in /  1031.7 hPa NNW 5.9 mph /  9.5 km/h 11.5 mph /  18.5 km/h 59 % 0.00 in /  0 mm
22:38 27.5 °F /  -2.5 °C 14.6 °F /  -9.7 °C 30.47 in /  1031.7 hPa NNW 6.4 mph /  10.3 km/h 12.7 mph /  20.4 km/h 58 % 0.00 in /  0 mm
22:43 27.5 °F /  -2.5 °C 14.2 °F /  -9.9 °C 30.47 in /  1031.7 hPa NW 6.1 mph /  9.8 km/h 11.5 mph /  18.5 km/h 57 % 0.00 in /  0 mm
22:48 27.4 °F /  -2.6 °C 14.9 °F /  -9.5 °C 30.46 in /  1031.4 hPa NNW 4.0 mph /  6.4 km/h 10.4 mph /  16.7 km/h 59 % 0.00 in /  0 mm
22:53 27.4 °F /  -2.6 °C 15.7 °F /  -9.1 °C 30.47 in /  1031.7 hPa NE 2.1 mph /  3.4 km/h 11.5 mph /  18.5 km/h 61 % 0.00 in /  0 mm
22:58 27.4 °F /  -2.6 °C 15.3 °F /  -9.3 °C 30.47 in /  1031.7 hPa NNE 4.4 mph /  7.1 km/h 8.1 mph /  13 km/h 60 % 0.00 in /  0 mm
23:03 27.4 °F /  -2.6 °C 14.5 °F /  -9.7 °C 30.47 in /  1031.7 hPa West 4.8 mph /  7.7 km/h 14.0 mph /  22.5 km/h 58 % 0.00 in /  0 mm
23:08 27.4 °F /  -2.6 °C 15.3 °F /  -9.3 °C 30.47 in /  1031.7 hPa North 8.9 mph /  14.3 km/h 11.5 mph /  18.5 km/h 60 % 0.00 in /  0 mm
23:13 27.4 °F /  -2.6 °C 15.7 °F /  -9.1 °C 30.46 in /  1031.4 hPa WNW 3.3 mph /  5.3 km/h 6.9 mph /  11.1 km/h 61 % 0.00 in /  0 mm
23:18 27.3 °F /  -2.6 °C 15.2 °F /  -9.3 °C 30.46 in /  1031.4 hPa North 7.0 mph /  11.3 km/h 13.0 mph /  20.9 km/h 60 % 0.00 in /  0 mm
23:23 27.3 °F /  -2.6 °C 15.6 °F /  -9.1 °C 30.47 in /  1031.7 hPa NE 6.1 mph /  9.8 km/h 11.0 mph /  17.7 km/h 61 % 0.00 in /  0 mm
23:28 27.3 °F /  -2.6 °C 15.2 °F /  -9.3 °C 30.47 in /  1031.7 hPa North 7.0 mph /  11.3 km/h 11.5 mph /  18.5 km/h 60 % 0.00 in /  0 mm
23:33 27.3 °F /  -2.6 °C 15.2 °F /  -9.3 °C 30.46 in /  1031.4 hPa North 2.5 mph /  4 km/h 6.9 mph /  11.1 km/h 60 % 0.00 in /  0 mm
23:38 27.2 °F /  -2.7 °C 15.5 °F /  -9.2 °C 30.47 in /  1031.7 hPa WNW 3.3 mph /  5.3 km/h 13.8 mph /  22.2 km/h 61 % 0.00 in /  0 mm
23:43 27.2 °F /  -2.7 °C 15.5 °F /  -9.2 °C 30.47 in /  1031.7 hPa NNW 6.4 mph /  10.3 km/h 12.7 mph /  20.4 km/h 61 % 0.00 in /  0 mm
23:48 27.2 °F /  -2.7 °C 15.5 °F /  -9.2 °C 30.47 in /  1031.7 hPa NW 6.7 mph /  10.8 km/h 13.8 mph /  22.2 km/h 61 % 0.00 in /  0 mm
23:53 27.2 °F /  -2.7 °C 15.5 °F /  -9.2 °C 30.46 in /  1031.4 hPa NNW 4.0 mph /  6.4 km/h 9.2 mph /  14.8 km/h 61 % 0.00 in /  0 mm
23:58 27.2 °F /  -2.7 °C 15.5 °F /  -9.2 °C 30.47 in /  1031.7 hPa WNW 4.5 mph /  7.2 km/h 10.4 mph /  16.7 km/h 61 % 0.00 in /  0 mm
Crab Meadow Weather
Compliments of Weather Underground - 3 mb

Script developed by  Jim McMurry - jmcmurry@mwt.net Adapted for the template by  Wim van der Kuil - Leuven-Template.eu

Weather Terms: Severe Local Storms - These are short-fused, small scale hazardous weather or hydrologic events produced by thunderstorms, including large hail, damaging winds, tornadoes, and flash floods.